• In Netherlands
  • List of Countries
  • For 7 days
  • Water Temperature
  • Satellite Maps
  • Weather Map
  • Weather Widgets
  • user-avatar
    Login

    Hourly Weather Khulna

    Today, 23 May, Tuesday

    Time Temperature Precipitation Wind Pressure Humidity
    00:00 +33°C° 0 mm 4 mps 752 mmHg 78%
    01:00 +32°C° 0 mm 4 mps 752 mmHg 80%
    02:00 +32°C° 0 mm 4 mps 752 mmHg 82%
    03:00 +32°C° 0 mm 4 mps 751 mmHg 84%
    04:00 +32°C° 0 mm 4 mps 752 mmHg 85%
    05:00 +31°C° 0 mm 3 mps 752 mmHg 86%
    06:00 +31°C° 0 mm 1 mps 752 mmHg 85%
    07:00 +32°C° 0 mm 2 mps 753 mmHg 79%
    08:00 +34°C° 0 mm 3 mps 753 mmHg 74%
    09:00 +35°C° 0 mm 4 mps 753 mmHg 68%
    10:00 +37°C° 0 mm 3 mps 753 mmHg 59%
    11:00 +39°C° 0 mm 3 mps 753 mmHg 49%
    12:00 +40°C° 0 mm 2 mps 753 mmHg 44%
    13:00 +41°C° 0 mm 2 mps 752 mmHg 40%
    14:00 +42°C° 0 mm 2 mps 752 mmHg 36%
    15:00 +44°C° 0 mm 3 mps 751 mmHg 33%
    16:00 +43°C° 0 mm 3 mps 751 mmHg 36%
    17:00 +42°C° 0 mm 4 mps 750 mmHg 39%
    18:00 +41°C° 0 mm 4 mps 750 mmHg 42%
    19:00 +39°C° 0 mm 5 mps 751 mmHg 50%
    20:00 +36°C° 0 mm 5 mps 751 mmHg 59%
    21:00 +34°C° 0 mm 5 mps 752 mmHg 67%
    22:00 +34°C° 0 mm 5 mps 752 mmHg 71%
    23:00 +33°C° 0 mm 5 mps 752 mmHg 74%

    Tomorrow, 24 May, Wednesday

    Time Temperature Precipitation Wind Pressure Humidity
    00:00 +33°C° 0 mm 5 mps 752 mmHg 77%
    01:00 +32°C° 0 mm 5 mps 752 mmHg 79%
    02:00 +32°C° 0 mm 5 mps 751 mmHg 81%
    03:00 +32°C° 0 mm 5 mps 751 mmHg 83%
    04:00 +32°C° 0 mm 4 mps 751 mmHg 83%
    05:00 +32°C° 0 mm 4 mps 752 mmHg 83%
    06:00 +32°C° 0 mm 4 mps 752 mmHg 84%
    07:00 +34°C° 0 mm 4 mps 752 mmHg 74%
    08:00 +36°C° 0 mm 4 mps 753 mmHg 64%
    09:00 +37°C° 0 mm 4 mps 753 mmHg 55%
    10:00 +40°C° 0 mm 4 mps 753 mmHg 48%
    11:00 +42°C° 0 mm 4 mps 753 mmHg 40%
    12:00 +44°C° 0 mm 4 mps 752 mmHg 33%
    13:00 +44°C° 0 mm 4 mps 752 mmHg 32%
    14:00 +46°C° 0 mm 5 mps 751 mmHg 30%
    15:00 +46°C° 0 mm 5 mps 750 mmHg 28%
    16:00 +45°C° 0 mm 6 mps 749 mmHg 33%
    17:00 +42°C° 0 mm 6 mps 749 mmHg 37%
    18:00 +40°C° 0 mm 7 mps 749 mmHg 41%
    19:00 +38°C° 0 mm 7 mps 750 mmHg 50%
    20:00 +36°C° 0 mm 7 mps 750 mmHg 58%
    21:00 +34°C° 0 mm 6 mps 751 mmHg 67%
    22:00 +33°C° 0 mm 6 mps 751 mmHg 70%
    23:00 +33°C° 0 mm 6 mps 751 mmHg 72%

    Day after tomorrow, 25 May, Thursday

    Time Temperature Precipitation Wind Pressure Humidity
    00:00 +33°C° 0 mm 6 mps 751 mmHg 75%
    01:00 +33°C° 0 mm 5 mps 751 mmHg 76%
    02:00 +32°C° 0 mm 5 mps 751 mmHg 77%
    03:00 +32°C° 0 mm 4 mps 751 mmHg 78%
    04:00 +31°C° 0 mm 3 mps 751 mmHg 78%
    05:00 +31°C° 0 mm 3 mps 752 mmHg 78%
    06:00 +31°C° 0 mm 2 mps 752 mmHg 79%
    07:00 +34°C° 0 mm 3 mps 752 mmHg 72%
    08:00 +35°C° 0 mm 4 mps 753 mmHg 66%
    09:00 +37°C° 0 mm 5 mps 753 mmHg 59%
    10:00 +40°C° 0 mm 5 mps 753 mmHg 51%
    11:00 +42°C° 0 mm 5 mps 752 mmHg 42%
    12:00 +45°C° 0 mm 5 mps 752 mmHg 34%
    13:00 +45°C° 0 mm 6 mps 751 mmHg 34%
    14:00 +45°C° 0 mm 6 mps 750 mmHg 33%
    15:00 +45°C° 0 mm 6 mps 749 mmHg 33%
    16:00 +43°C° 0 mm 7 mps 750 mmHg 39%
    17:00 +40°C° 0 mm 7 mps 750 mmHg 44%
    18:00 +39°C° 0 mm 7 mps 750 mmHg 50%
    19:00 +36°C° 0.2 mm 7 mps 750 mmHg 56%
    20:00 +35°C° 0.2 mm 6 mps 751 mmHg 63%
    21:00 +34°C° 0.2 mm 5 mps 751 mmHg 69%
    22:00 +33°C° 0 mm 5 mps 752 mmHg 71%
    23:00 +33°C° 0 mm 5 mps 752 mmHg 73%

    26 May, Friday

    Time Temperature Precipitation Wind Pressure Humidity
    00:00 +33°C° 0 mm 5 mps 752 mmHg 74%
    01:00 +32°C° 0 mm 5 mps 752 mmHg 76%
    02:00 +32°C° 0 mm 4 mps 752 mmHg 77%
    03:00 +32°C° 0 mm 4 mps 752 mmHg 78%
    04:00 +31°C° 0 mm 3 mps 752 mmHg 79%
    05:00 +31°C° 0 mm 3 mps 752 mmHg 80%
    06:00 +30°C° 0 mm 3 mps 752 mmHg 81%
    07:00 +33°C° 0 mm 3 mps 753 mmHg 71%
    08:00 +35°C° 0 mm 4 mps 753 mmHg 60%
    09:00 +37°C° 0 mm 4 mps 754 mmHg 50%
    10:00 +40°C° 0 mm 5 mps 753 mmHg 43%
    11:00 +42°C° 0 mm 5 mps 753 mmHg 37%
    12:00 +45°C° 0 mm 5 mps 753 mmHg 31%
    13:00 +45°C° 0 mm 5 mps 752 mmHg 31%
    14:00 +45°C° 0 mm 6 mps 751 mmHg 31%
    15:00 +45°C° 0 mm 6 mps 750 mmHg 31%
    16:00 +42°C° 0 mm 6 mps 750 mmHg 36%
    17:00 +40°C° 0 mm 7 mps 750 mmHg 40%
    18:00 +39°C° 0 mm 7 mps 750 mmHg 45%
    19:00 +36°C° 0 mm 6 mps 751 mmHg 52%
    20:00 +35°C° 0 mm 6 mps 751 mmHg 59%
    21:00 +33°C° 0 mm 5 mps 752 mmHg 66%
    22:00 +33°C° 0 mm 6 mps 752 mmHg 68%
    23:00 +33°C° 0 mm 6 mps 752 mmHg 70%

    27 May, Saturday

    Time Temperature Precipitation Wind Pressure Humidity
    00:00 +32°C° 0 mm 6 mps 752 mmHg 72%
    01:00 +32°C° 0 mm 5 mps 752 mmHg 74%
    02:00 +32°C° 0 mm 4 mps 751 mmHg 75%
    03:00 +31°C° 0 mm 3 mps 751 mmHg 77%
    04:00 +31°C° 0 mm 3 mps 751 mmHg 78%
    05:00 +30°C° 0 mm 3 mps 752 mmHg 79%
    06:00 +30°C° 0 mm 3 mps 752 mmHg 80%
    07:00 +33°C° 0 mm 3 mps 753 mmHg 72%
    08:00 +35°C° 0 mm 3 mps 753 mmHg 64%
    09:00 +36°C° 0 mm 3 mps 754 mmHg 57%
    10:00 +38°C° 0 mm 3 mps 753 mmHg 50%
    11:00 +40°C° 0 mm 3 mps 753 mmHg 44%
    12:00 +42°C° 0 mm 3 mps 752 mmHg 37%
    13:00 +42°C° 0 mm 4 mps 751 mmHg 37%
    14:00 +42°C° 0 mm 4 mps 751 mmHg 36%
    15:00 +43°C° 0 mm 5 mps 750 mmHg 36%
    16:00 +41°C° 0 mm 5 mps 749 mmHg 40%
    17:00 +40°C° 0 mm 6 mps 749 mmHg 44%
    18:00 +39°C° 0 mm 6 mps 749 mmHg 48%
    19:00 +36°C° 0 mm 6 mps 750 mmHg 55%
    20:00 +35°C° 0 mm 6 mps 751 mmHg 62%
    21:00 +33°C° 0 mm 6 mps 752 mmHg 69%
    22:00 +33°C° 0 mm 5 mps 752 mmHg 71%
    23:00 +33°C° 0 mm 4 mps 752 mmHg 73%

    28 May, Sunday

    Time Temperature Precipitation Wind Pressure Humidity
    00:00 +32°C° 0 mm 4 mps 752 mmHg 75%
    01:00 +32°C° 0 mm 4 mps 751 mmHg 77%
    02:00 +32°C° 0 mm 4 mps 751 mmHg 78%
    03:00 +32°C° 0 mm 4 mps 750 mmHg 80%
    04:00 +31°C° 0 mm 3 mps 751 mmHg 80%
    05:00 +31°C° 0 mm 2 mps 751 mmHg 81%
    06:00 +31°C° 0 mm 2 mps 752 mmHg 81%
    07:00 +32°C° 0 mm 2 mps 752 mmHg 71%
    08:00 +35°C° 0 mm 3 mps 753 mmHg 62%
    09:00 +37°C° 0 mm 4 mps 753 mmHg 52%
    10:00 +40°C° 0 mm 4 mps 753 mmHg 46%
    11:00 +40°C° 0 mm 3 mps 752 mmHg 40%
    12:00 +43°C° 0 mm 3 mps 752 mmHg 34%
    13:00 +43°C° 0 mm 3 mps 751 mmHg 33%
    14:00 +43°C° 0 mm 3 mps 750 mmHg 32%
    15:00 +44°C° 0 mm 3 mps 750 mmHg 32%
    16:00 +42°C° 0 mm 4 mps 749 mmHg 35%
    17:00 +41°C° 0 mm 5 mps 749 mmHg 39%
    18:00 +40°C° 0 mm 6 mps 749 mmHg 43%
    19:00 +38°C° 0 mm 6 mps 750 mmHg 50%
    20:00 +36°C° 0 mm 5 mps 750 mmHg 57%
    21:00 +34°C° 0 mm 5 mps 751 mmHg 64%
    22:00 +33°C° 0 mm 5 mps 751 mmHg 67%
    23:00 +33°C° 0 mm 5 mps 751 mmHg 70%
    Show more